DW7259 Weather Reports


Display with metric or nautical units.
time (UTC)temp
F
wind
direction
speed
MPH
gust
MPH
rain 1hr
in
rain 24hr
in
rain mn
in
humidity
%
barometer
mb
20260901021541 74 96 2.0 11.0 0.00 0.00 0.00 30 999.8
20260901020041 75 42 1.0 10.0 0.00 0.00 0.00 30 999.5
20260901014545 76 38 3.0 8.0 0.00 0.00 0.00 29 999.4
20260901013040 76 40 1.0 12.0 0.00 0.00 0.00 30 999.4
20260901011539 77 45 1.0 7.0 0.00 0.00 0.00 30 999.4
20260901010038 78 46 0.0 3.0 0.00 0.00 0.00 30 999.3
20260901004541 79 46 0.0 11.0 0.00 0.00 0.00 29 999.5
20260901003037 79 148 1.0 6.0 0.00 0.00 0.00 28 999.6
20260901001549 80 151 0.0 5.0 0.00 0.00 0.00 28 999.6
20260901000035 80 151 0.0 7.0 0.00 0.00 0.00 27 999.6
20260831234536 81 138 1.0 11.0 0.00 0.00 0.00 25 999.7
20260831233033 83 5 1.0 11.0 0.00 0.00 0.00 24 999.7
20260831231532 85 360 1.0 14.0 0.00 0.00 0.00 19 999.9
20260831230032 85 143 4.0 9.0 0.00 0.00 0.00 19 1000.0
20260831224529 85 146 3.0 12.0 0.00 0.00 0.00 19 1000.1
20260831223028 84 360 2.0 6.0 0.00 0.00 0.00 19 1000.2
20260831221526 85 360 0.0 6.0 0.00 0.00 0.00 18 1000.4
20260831220024 86 162 3.0 15.0 0.00 0.00 0.00 17 1000.7
20260831214524 87 360 1.0 6.0 0.00 0.00 0.00 18 1000.8
20260831213020 86 275 1.0 5.0 0.00 0.00 0.00 18 1001.1
20260831211521 86 360 3.0 8.0 0.00 0.00 0.00 18 1001.2
20260831210019 85 360 5.0 8.0 0.00 0.00 0.00 19 1001.4
20260831204520 85 360 4.0 8.0 0.00 0.00 0.00 18 1001.5
20260831203021 86 360 0.0 7.0 0.00 0.00 0.00 19 1001.6
20260831201512 85 360 4.0 9.0 0.00 0.00 0.00 19 1002.0
20260831200011 85 360 0.0 5.0 0.00 0.00 0.00 21 1002.4
20260831194505 82 360 3.0 7.0 0.00 0.00 0.00 22 1002.7
20260831193004 82 360 3.0 6.0 0.00 0.00 0.00 21 1003.0
20260831191601 83 360 4.0 8.0 0.00 0.00 0.00 21 1003.2
20260831190059 81 360 2.0 5.0 0.00 0.00 0.00 23 1003.4
20260831184552 80 360 4.0 10.0 0.00 0.00 0.00 23 1003.6
20260831183050 80 360 5.0 7.0 0.00 0.00 0.00 23 1003.7
20260831181551 78 360 3.0 7.0 0.00 0.00 0.00 26 1003.8
20260831180043 77 360 2.0 7.0 0.00 0.00 0.00 29 1004.0
20260831174536 75 360 2.0 5.0 0.00 0.00 0.00 31 1004.2
20260831173032 74 360 3.0 7.0 0.00 0.00 0.00 31 1004.3
20260831171528 74 46 2.0 5.0 0.00 0.00 0.00 31 1004.3
20260831170028 73 360 1.0 4.0 0.00 0.00 0.00 34 1004.4
20260831164522 70 360 0.0 3.0 0.00 0.00 0.00 36 1004.4
20260831163014 69 46 0.0 3.0 0.00 0.00 0.00 37 1004.5
20260831161510 69 360 0.0 2.0 0.00 0.00 0.00 37 1004.6
20260831160005 67 360 0.0 0.0 0.00 0.00 0.00 38 1004.7
20260831154503 65 360 0.0 0.0 0.00 0.00 0.00 41 1004.9
20260831153057 65 360 0.0 0.0 0.00 0.00 0.00 42 1004.8
20260831151559 63 41 0.0 0.0 0.00 0.00 0.00 44 1004.9
20260831150053 62 290 0.0 0.0 0.00 0.00 0.00 45 1004.9
20260831144544 60 286 0.0 0.0 0.00 0.00 0.00 46 1005.0
20260831143041 58 286 0.0 0.0 0.00 0.00 0.00 50 1004.8
20260831141537 56 288 0.0 0.0 0.00 0.00 0.00 51 1004.7
20260831140033 54 289 0.0 0.0 0.00 0.00 0.00 52 1004.8
20260831134529 54 289 0.0 6.0 0.00 0.00 0.00 53 1004.8
20260831133024 54 288 4.0 5.0 0.00 0.00 0.00 52 1004.8
20260831131522 54 360 1.0 5.0 0.00 0.00 0.00 51 1004.7
20260831130021 54 360 1.0 4.0 0.00 0.00 0.00 51 1004.7
20260831124519 55 284 0.0 0.0 0.00 0.00 0.00 50 1004.8
20260831123022 55 360 0.0 0.0 0.00 0.00 0.00 50 1004.8
20260831121517 56 360 0.0 0.0 0.00 0.00 0.00 49 1004.9
20260831120018 55 320 0.0 1.0 0.00 0.00 0.00 53 1005.0
20260831114516 55 320 0.0 0.0 0.00 0.00 0.00 53 1005.0
20260831113014 55 320 0.0 2.0 0.00 0.00 0.00 51 1005.1
20260831111513 56 320 0.0 1.0 0.00 0.00 0.00 52 1005.1
20260831110011 55 320 0.0 2.0 0.00 0.00 0.00 52 1005.1
20260831104514 56 320 0.0 0.0 0.00 0.00 0.00 52 1005.2
20260831103007 56 320 0.0 0.0 0.00 0.00 0.00 52 1005.1
20260831101507 56 320 0.0 2.0 0.00 0.00 0.00 52 1005.2
20260831100005 56 320 0.0 0.0 0.00 0.00 0.00 51 1005.1
20260831094503 57 320 0.0 0.0 0.00 0.00 0.00 50 1005.2
20260831093104 57 320 0.0 0.0 0.00 0.00 0.00 49 1005.2
20260831091605 58 320 0.0 0.0 0.00 0.00 0.00 48 1005.2
20260831090057 58 320 0.0 0.0 0.00 0.00 0.00 48 1005.3
20260831084553 59 320 0.0 1.0 0.00 0.00 0.00 49 1005.2
20260831083055 60 320 0.0 2.0 0.00 0.00 0.00 46 1005.4
20260831081551 60 320 1.0 4.0 0.00 0.00 0.00 46 1005.4
20260831080049 60 320 0.0 0.0 0.00 0.00 0.00 47 1005.5
20260831074550 60 320 0.0 1.0 0.00 0.00 0.00 46 1005.5
20260831073047 61 320 0.0 1.0 0.00 0.00 0.00 47 1005.4
20260831071544 61 320 0.0 0.0 0.00 0.00 0.00 46 1005.5
20260831070045 62 320 0.0 1.0 0.00 0.00 0.00 45 1005.6
20260831064541 63 320 0.0 0.0 0.00 0.00 0.00 44 1005.6
20260831063040 63 320 0.0 2.0 0.00 0.00 0.00 42 1005.6
20260831061539 63 320 0.0 3.0 0.00 0.00 0.00 42 1005.5
20260831060039 63 320 0.0 1.0 0.00 0.00 0.00 42 1005.5
20260831054538 64 320 0.0 1.0 0.00 0.00 0.00 42 1005.5
20260831053038 65 320 0.0 3.0 0.00 0.00 0.00 40 1005.5
20260831051543 66 320 0.0 1.0 0.00 0.00 0.00 40 1005.5
20260831050037 67 320 0.0 0.0 0.00 0.00 0.00 38 1005.6
20260831044537 68 320 0.0 2.0 0.00 0.00 0.00 37 1005.5
20260831043036 69 320 0.0 2.0 0.00 0.00 0.00 35 1005.3
20260831041549 71 320 0.0 0.0 0.00 0.00 0.00 34 1005.2
20260831040040 72 360 2.0 5.0 0.00 0.00 0.00 31 1005.0
20260831034534 73 360 2.0 8.0 0.00 0.00 0.00 31 1004.7
20260831033034 73 278 2.0 7.0 0.00 0.00 0.00 30 1004.5
20260831031533 74 360 2.0 6.0 0.00 0.00 0.00 29 1004.3
20260831030036 75 285 3.0 10.0 0.00 0.00 0.00 27 1004.0
20260831024538 76 291 2.0 9.0 0.00 0.00 0.00 26 1004.1
20260831023032 77 360 1.0 6.0 0.00 0.00 0.00 25 1004.0